User: anonymous
Location: Columbia
(38.9520°N, 92.3340°W)
Time: 08:43:29
(UTC-05:00)
Language:

Meteor 1-4 Rocket - Orbit

View from above orbital plane
View from above orbital plane
View from above satellite
View from above satellite

Ground track
Ground track

The orbit data is extracted from the following two-line orbital elements,

1 04394U 70037B   14105.13655625  .00006715  00000-0  30230-3 0  5504
2 04394 081.2435 289.0769 0050169 103.3538 257.3294 15.19760899388130
Epoch (UTC): 15 April 2014 03:16:38
Eccentricity: 0.0050169
inclination: 81.2435°
perigee height: 472 km
apogee height: 541 km
right ascension of ascending node: 289.0769°
argument of perigee: 103.3538°
revolutions per day: 15.19760899
mean anomaly at epoch: 257.3294°
orbit number at epoch: 38813

The dashed part of the orbit path shows where the satellite is in the earth's shadow,  

DLR